| time (UTC) | temp F | wind direction | speed MPH | gust MPH | rain 1hr in | rain 24hr in | rain mn in | humidity % | barometer mb |
| 20260508121954 | 52 | 239 | 2.0 | 7.0 | 0.00 | 0.00 | 0.00 | 52 | 1007.7 |
| 20260508121449 | 51 | 249 | 2.0 | 7.0 | 0.00 | 0.00 | 0.00 | 53 | 1007.7 |
| 20260508120944 | 51 | 347 | 1.0 | 7.0 | 0.00 | 0.00 | 0.00 | 54 | 1007.8 |
| 20260508120444 | 51 | 249 | 1.0 | 7.0 | 0.00 | 0.00 | 0.00 | 54 | 1007.7 |
| 20260508115943 | 50 | 285 | 1.0 | 7.0 | 0.00 | 0.00 | 0.00 | 56 | 1007.7 |
| 20260508115444 | 49 | 279 | 2.0 | 7.0 | 0.00 | 0.00 | 0.00 | 57 | 1007.7 |
| 20260508115210 | 49 | 270 | 3.0 | 8.0 | 0.00 | 0.00 | 0.00 | 58 | 1007.7 |
| 20260508114444 | 48 | 271 | 3.0 | 9.0 | 0.00 | 0.00 | 0.00 | 60 | 1007.8 |
| 20260508113944 | 47 | 273 | 2.0 | 9.0 | 0.00 | 0.00 | 0.00 | 59 | 1007.8 |
| 20260508113444 | 47 | 232 | 2.0 | 9.0 | 0.00 | 0.00 | 0.00 | 61 | 1007.9 |
| 20260508112944 | 46 | 281 | 1.0 | 7.0 | 0.00 | 0.00 | 0.00 | 61 | 1007.8 |
| 20260508112443 | 46 | 301 | 1.0 | 7.0 | 0.00 | 0.00 | 0.00 | 61 | 1007.7 |
| 20260508112201 | 46 | 271 | 2.0 | 7.0 | 0.00 | 0.00 | 0.00 | 62 | 1007.7 |
| 20260508111700 | 45 | 273 | 2.0 | 8.0 | 0.00 | 0.00 | 0.00 | 64 | 1007.7 |
| 20260508110940 | 44 | 252 | 1.0 | 8.0 | 0.00 | 0.00 | 0.00 | 65 | 1007.7 |
| 20260508110441 | 43 | 293 | 0.0 | 4.0 | 0.00 | 0.00 | 0.00 | 67 | 1007.7 |
| 20260508110200 | 43 | 289 | 0.0 | 4.0 | 0.00 | 0.00 | 0.00 | 68 | 1007.3 |
| 20260508105432 | 42 | 311 | 0.0 | 4.0 | 0.00 | 0.00 | 0.00 | 69 | 1007.6 |
| 20260508104927 | 42 | 311 | 0.0 | 4.0 | 0.00 | 0.00 | 0.00 | 70 | 1007.6 |
| 20260508104420 | 41 | 317 | 0.0 | 2.0 | 0.00 | 0.00 | 0.00 | 71 | 1007.6 |
| 20260508103915 | 40 | 317 | 0.0 | 3.0 | 0.00 | 0.00 | 0.00 | 72 | 1007.5 |
| 20260508103409 | 40 | 317 | 0.0 | 3.0 | 0.00 | 0.00 | 0.00 | 73 | 1007.4 |
| 20260508102902 | 39 | 317 | 0.0 | 1.0 | 0.00 | 0.00 | 0.00 | 74 | 1007.4 |
| 20260508102357 | 39 | 317 | 0.0 | 1.0 | 0.00 | 0.00 | 0.00 | 76 | 1007.4 |
| 20260508101850 | 38 | 317 | 0.0 | 1.0 | 0.00 | 0.00 | 0.00 | 77 | 1007.3 |
| 20260508101346 | 38 | 317 | 0.0 | 0.0 | 0.00 | 0.00 | 0.00 | 79 | 1007.2 |
| 20260508101056 | 38 | 317 | 0.0 | 0.0 | 0.00 | 0.00 | 0.00 | 78 | 1007.1 |
| 20260508100552 | 38 | 317 | 0.0 | 0.0 | 0.00 | 0.00 | 0.00 | 78 | 1007.1 |
| 20260508095827 | 38 | 317 | 0.0 | 0.0 | 0.00 | 0.00 | 0.00 | 78 | 1007.1 |
| 20260508095550 | 37 | 317 | 0.0 | 0.0 | 0.00 | 0.00 | 0.00 | 79 | 1007.1 |
| 20260508094814 | 37 | 317 | 0.0 | 0.0 | 0.00 | 0.00 | 0.00 | 78 | 1007.0 |
| 20260508094309 | 37 | 317 | 0.0 | 0.0 | 0.00 | 0.00 | 0.00 | 78 | 1007.0 |
| 20260508093804 | 37 | 317 | 0.0 | 0.0 | 0.00 | 0.00 | 0.00 | 78 | 1006.9 |
| 20260508093257 | 37 | 317 | 0.0 | 0.0 | 0.00 | 0.00 | 0.00 | 78 | 1006.9 |
| 20260508092750 | 37 | 317 | 0.0 | 0.0 | 0.00 | 0.00 | 0.00 | 78 | 1006.8 |
| 20260508092244 | 37 | 317 | 0.0 | 2.0 | 0.00 | 0.00 | 0.00 | 77 | 1006.7 |
| 20260508091739 | 37 | 317 | 0.0 | 2.0 | 0.00 | 0.00 | 0.00 | 77 | 1006.6 |
| 20260508091449 | 37 | 317 | 0.0 | 1.0 | 0.00 | 0.00 | 0.00 | 77 | 1006.6 |
| 20260508090726 | 37 | 317 | 0.0 | 1.0 | 0.00 | 0.00 | 0.00 | 76 | 1006.5 |
| 20260508090221 | 38 | 317 | 0.0 | 0.0 | 0.00 | 0.00 | 0.00 | 76 | 1006.4 |
| 20260508085935 | 38 | 317 | 0.0 | 0.0 | 0.00 | 0.00 | 0.00 | 76 | 1006.2 |
| 20260508085208 | 38 | 317 | 0.0 | 0.0 | 0.00 | 0.00 | 0.00 | 76 | 1006.2 |
| 20260508084702 | 38 | 317 | 0.0 | 0.0 | 0.00 | 0.00 | 0.00 | 77 | 1006.2 |
| 20260508084156 | 38 | 317 | 0.0 | 0.0 | 0.00 | 0.00 | 0.00 | 77 | 1006.1 |
| 20260508083650 | 38 | 317 | 0.0 | 0.0 | 0.00 | 0.00 | 0.00 | 77 | 1006.1 |
| 20260508083144 | 38 | 317 | 0.0 | 0.0 | 0.00 | 0.00 | 0.00 | 77 | 1006.0 |
| 20260508082639 | 39 | 317 | 0.0 | 0.0 | 0.00 | 0.00 | 0.00 | 76 | 1006.1 |
| 20260508082132 | 39 | 317 | 0.0 | 0.0 | 0.00 | 0.00 | 0.00 | 75 | 1006.1 |
| 20260508081628 | 39 | 317 | 0.0 | 0.0 | 0.00 | 0.00 | 0.00 | 75 | 1006.0 |
| 20260508081120 | 39 | 317 | 0.0 | 0.0 | 0.00 | 0.00 | 0.00 | 74 | 1006.0 |
| 20260508080615 | 39 | 317 | 0.0 | 0.0 | 0.00 | 0.00 | 0.00 | 74 | 1006.0 |
| 20260508080108 | 39 | 317 | 0.0 | 0.0 | 0.00 | 0.00 | 0.00 | 74 | 1006.0 |
| 20260508075603 | 39 | 317 | 0.0 | 0.0 | 0.00 | 0.00 | 0.00 | 74 | 1005.9 |
| 20260508075056 | 39 | 317 | 0.0 | 0.0 | 0.00 | 0.00 | 0.00 | 73 | 1005.9 |
| 20260508074551 | 39 | 317 | 0.0 | 0.0 | 0.00 | 0.00 | 0.00 | 73 | 1005.8 |
| 20260508074044 | 40 | 317 | 0.0 | 0.0 | 0.00 | 0.00 | 0.00 | 72 | 1005.8 |
| 20260508073539 | 40 | 317 | 0.0 | 0.0 | 0.00 | 0.00 | 0.00 | 71 | 1005.9 |
| 20260508073032 | 40 | 317 | 0.0 | 0.0 | 0.00 | 0.00 | 0.00 | 71 | 1005.8 |
| 20260508072749 | 40 | 317 | 0.0 | 0.0 | 0.00 | 0.00 | 0.00 | 70 | 1005.8 |
| 20260508072021 | 41 | 317 | 0.0 | 0.0 | 0.00 | 0.00 | 0.00 | 70 | 1005.8 |
| 20260508071731 | 41 | 317 | 0.0 | 0.0 | 0.00 | 0.00 | 0.00 | 69 | 1005.8 |
| 20260508071010 | 41 | 317 | 0.0 | 0.0 | 0.00 | 0.00 | 0.00 | 69 | 1005.8 |
| 20260508070502 | 42 | 317 | 0.0 | 0.0 | 0.00 | 0.00 | 0.00 | 67 | 1005.8 |
| 20260508065956 | 42 | 317 | 0.0 | 0.0 | 0.00 | 0.00 | 0.00 | 66 | 1005.7 |
| 20260508065715 | 43 | 317 | 0.0 | 0.0 | 0.00 | 0.00 | 0.00 | 65 | 1005.7 |
| 20260508064945 | 43 | 317 | 0.0 | 0.0 | 0.00 | 0.00 | 0.00 | 64 | 1005.7 |
| 20260508064438 | 43 | 317 | 0.0 | 0.0 | 0.00 | 0.00 | 0.00 | 64 | 1005.7 |
| 20260508064154 | 44 | 317 | 0.0 | 1.0 | 0.00 | 0.00 | 0.00 | 63 | 1005.8 |
| 20260508063426 | 44 | 317 | 0.0 | 1.0 | 0.00 | 0.00 | 0.00 | 64 | 1005.8 |
| 20260508062920 | 45 | 317 | 0.0 | 0.0 | 0.00 | 0.00 | 0.00 | 64 | 1006.0 |
| 20260508062414 | 45 | 317 | 0.0 | 0.0 | 0.00 | 0.00 | 0.00 | 59 | 1006.0 |
| 20260508061908 | 46 | 317 | 0.0 | 3.0 | 0.00 | 0.00 | 0.00 | 58 | 1006.0 |
| 20260508061404 | 46 | 317 | 0.0 | 4.0 | 0.00 | 0.00 | 0.00 | 57 | 1006.0 |
| 20260508061122 | 46 | 315 | 1.0 | 7.0 | 0.00 | 0.00 | 0.00 | 56 | 1006.0 |
| 20260508060350 | 46 | 302 | 1.0 | 8.0 | 0.00 | 0.00 | 0.00 | 56 | 1006.0 |
| 20260508055844 | 46 | 318 | 1.0 | 8.0 | 0.00 | 0.00 | 0.00 | 55 | 1005.9 |
| 20260508055338 | 46 | 341 | 1.0 | 6.0 | 0.00 | 0.00 | 0.00 | 56 | 1006.0 |
| 20260508054833 | 47 | 342 | 1.0 | 8.0 | 0.00 | 0.00 | 0.00 | 56 | 1006.1 |
| 20260508054550 | 46 | 321 | 1.0 | 8.0 | 0.00 | 0.00 | 0.00 | 55 | 1006.1 |
| 20260508053821 | 46 | 309 | 1.0 | 8.0 | 0.00 | 0.00 | 0.00 | 55 | 1006.1 |
| 20260508053315 | 46 | 303 | 1.0 | 5.0 | 0.00 | 0.01 | 0.00 | 56 | 1006.2 |
| 20260508052808 | 47 | 331 | 0.0 | 4.0 | 0.00 | 0.01 | 0.00 | 55 | 1006.3 |
| 20260508052306 | 47 | 331 | 0.0 | 4.0 | 0.00 | 0.01 | 0.00 | 54 | 1006.3 |
| 20260508051757 | 47 | 338 | 0.0 | 3.0 | 0.00 | 0.01 | 0.00 | 55 | 1006.4 |
| 20260508051252 | 47 | 338 | 0.0 | 5.0 | 0.00 | 0.01 | 0.00 | 55 | 1006.5 |
| 20260508050744 | 47 | 338 | 0.0 | 5.0 | 0.00 | 0.01 | 0.00 | 54 | 1006.5 |
| 20260508050238 | 47 | 307 | 0.0 | 5.0 | 0.00 | 0.01 | 0.00 | 55 | 1006.6 |
| 20260508045733 | 47 | 329 | 0.0 | 4.0 | 0.00 | 0.01 | 0.00 | 56 | 1006.6 |
| 20260508045227 | 47 | 326 | 0.0 | 3.0 | 0.00 | 0.01 | 0.00 | 58 | 1006.6 |
| 20260508044721 | 47 | 326 | 0.0 | 3.0 | 0.00 | 0.02 | 0.00 | 57 | 1006.6 |
| 20260508044214 | 47 | 326 | 0.0 | 2.0 | 0.00 | 0.02 | 0.00 | 58 | 1006.6 |
| 20260508043927 | 47 | 326 | 0.0 | 2.0 | 0.00 | 0.02 | 0.00 | 59 | 1006.6 |
| 20260508043202 | 47 | 326 | 0.0 | 4.0 | 0.00 | 0.02 | 0.00 | 58 | 1006.6 |
| 20260508042656 | 47 | 326 | 0.0 | 4.0 | 0.00 | 0.03 | 0.00 | 58 | 1006.5 |
| 20260508042151 | 47 | 325 | 0.0 | 2.0 | 0.00 | 0.03 | 0.00 | 56 | 1006.6 |
| 20260508041645 | 47 | 325 | 0.0 | 3.0 | 0.00 | 0.03 | 0.00 | 57 | 1006.6 |
| 20260508041405 | 47 | 325 | 0.0 | 3.0 | 0.00 | 0.03 | 0.00 | 58 | 1006.6 |
| 20260508040633 | 47 | 325 | 0.0 | 1.0 | 0.00 | 0.03 | 0.00 | 55 | 1006.6 |
| 20260508040604 | 48 | 325 | 0.0 | 0.0 | 0.00 | 0.03 | 0.00 | 56 | 1006.6 |
| 20260508035626 | 48 | 325 | 0.0 | 3.0 | 0.00 | 0.04 | 0.03 | 53 | 1006.6 |
| 20260508035125 | 48 | 325 | 0.0 | 3.0 | 0.00 | 0.04 | 0.03 | 53 | 1006.5 |
| 20260508034625 | 49 | 333 | 0.0 | 2.0 | 0.00 | 0.04 | 0.03 | 52 | 1006.6 |
| 20260508034125 | 49 | 333 | 0.0 | 2.0 | 0.00 | 0.04 | 0.03 | 51 | 1006.5 |
| 20260508033847 | 49 | 333 | 0.0 | 0.0 | 0.00 | 0.04 | 0.03 | 51 | 1006.6 |
| 20260508033125 | 50 | 333 | 0.0 | 0.0 | 0.00 | 0.05 | 0.03 | 50 | 1006.6 |
| 20260508032853 | 50 | 333 | 0.0 | 2.0 | 0.00 | 0.05 | 0.03 | 50 | 1006.6 |
| 20260508032125 | 51 | 333 | 0.0 | 3.0 | 0.00 | 0.05 | 0.03 | 47 | 1006.6 |
| 20260508031625 | 51 | 333 | 0.0 | 3.0 | 0.00 | 0.05 | 0.03 | 47 | 1006.5 |
| 20260508031127 | 51 | 333 | 0.0 | 3.0 | 0.00 | 0.05 | 0.03 | 47 | 1006.5 |
| 20260508030625 | 51 | 333 | 0.0 | 3.0 | 0.00 | 0.05 | 0.03 | 46 | 1006.6 |
| 20260508030125 | 51 | 333 | 0.0 | 4.0 | 0.00 | 0.05 | 0.03 | 47 | 1006.7 |
| 20260508025848 | 51 | 333 | 1.0 | 4.0 | 0.00 | 0.05 | 0.03 | 46 | 1006.6 |
| 20260508025125 | 52 | 333 | 0.0 | 5.0 | 0.00 | 0.05 | 0.03 | 45 | 1006.6 |
| 20260508024625 | 52 | 332 | 1.0 | 5.0 | 0.00 | 0.05 | 0.03 | 45 | 1006.5 |
| 20260508024125 | 52 | 5 | 1.0 | 9.0 | 0.00 | 0.05 | 0.03 | 45 | 1006.5 |
| 20260508023625 | 52 | 317 | 1.0 | 9.0 | 0.00 | 0.05 | 0.03 | 44 | 1006.5 |
| 20260508023350 | 52 | 355 | 1.0 | 9.0 | 0.00 | 0.05 | 0.03 | 44 | 1006.5 |
| 20260508022623 | 53 | 333 | 1.0 | 9.0 | 0.00 | 0.05 | 0.03 | 44 | 1006.3 |
| 20260508022116 | 53 | 0 | 1.0 | 3.0 | 0.00 | 0.05 | 0.03 | 44 | 1006.2 |
| 20260508021843 | 53 | 0 | 1.0 | 6.0 | 0.00 | 0.05 | 0.03 | 44 | 1006.2 |
| 20260508021105 | 54 | 0 | 2.0 | 10.0 | 0.00 | 0.05 | 0.03 | 43 | 1006.1 |
| 20260508020559 | 54 | 341 | 1.0 | 10.0 | 0.00 | 0.05 | 0.03 | 42 | 1006.1 |
| 20260508020053 | 54 | 26 | 1.0 | 6.0 | 0.00 | 0.05 | 0.03 | 41 | 1006.0 |
| 20260508015546 | 54 | 347 | 2.0 | 8.0 | 0.00 | 0.05 | 0.03 | 40 | 1005.9 |
| 20260508015041 | 55 | 350 | 2.0 | 8.0 | 0.00 | 0.05 | 0.03 | 40 | 1005.8 |
| 20260508014534 | 55 | 355 | 2.0 | 8.0 | 0.00 | 0.05 | 0.03 | 39 | 1005.8 |
| 20260508014028 | 55 | 26 | 3.0 | 10.0 | 0.00 | 0.05 | 0.03 | 40 | 1005.7 |
| 20260508013748 | 55 | 329 | 4.0 | 10.0 | 0.00 | 0.05 | 0.03 | 39 | 1005.6 |
| 20260508013243 | 55 | 336 | 3.0 | 10.0 | 0.00 | 0.05 | 0.03 | 39 | 1005.6 |
| 20260508012510 | 55 | 333 | 2.0 | 6.0 | 0.00 | 0.05 | 0.03 | 39 | 1005.5 |
| 20260508012003 | 56 | 344 | 2.0 | 8.0 | 0.00 | 0.05 | 0.03 | 40 | 1005.4 |
| 20260508011456 | 56 | 321 | 1.0 | 8.0 | 0.00 | 0.05 | 0.03 | 40 | 1005.3 |
| 20260508010951 | 55 | 329 | 1.0 | 6.0 | 0.00 | 0.05 | 0.03 | 40 | 1005.4 |
| 20260508010924 | 55 | 301 | 1.0 | 5.0 | 0.00 | 0.05 | 0.03 | 41 | 1005.3 |
| 20260508005938 | 55 | 318 | 1.0 | 5.0 | 0.00 | 0.05 | 0.03 | 41 | 1005.2 |
| 20260508005656 | 55 | 275 | 0.0 | 3.0 | 0.00 | 0.05 | 0.03 | 44 | 1005.2 |
| 20260508004926 | 55 | 271 | 0.0 | 2.0 | 0.00 | 0.05 | 0.03 | 48 | 1005.2 |
| 20260508004420 | 55 | 271 | 0.0 | 0.0 | 0.00 | 0.05 | 0.03 | 50 | 1005.2 |
| 20260508003914 | 56 | 271 | 0.0 | 0.0 | 0.00 | 0.06 | 0.03 | 48 | 1005.0 |
| 20260508003408 | 56 | 271 | 0.0 | 0.0 | 0.00 | 0.06 | 0.03 | 44 | 1004.9 |
| 20260508003126 | 56 | 271 | 0.0 | 2.0 | 0.00 | 0.06 | 0.03 | 44 | 1004.8 |
| 20260508002357 | 56 | 271 | 0.0 | 2.0 | 0.00 | 0.06 | 0.03 | 42 | 1004.7 |
| 20260508001851 | 57 | 271 | 0.0 | 1.0 | 0.00 | 0.06 | 0.03 | 41 | 1004.5 |
| 20260508001344 | 57 | 271 | 0.0 | 1.0 | 0.00 | 0.06 | 0.03 | 41 | 1004.5 |
| 20260508000840 | 57 | 270 | 0.0 | 1.0 | 0.00 | 0.06 | 0.03 | 40 | 1004.4 |
| 20260508000334 | 57 | 270 | 0.0 | 1.0 | 0.00 | 0.06 | 0.03 | 39 | 1004.4 |
| 20260507235826 | 58 | 270 | 0.0 | 3.0 | 0.00 | 0.06 | 0.03 | 39 | 1004.4 |
| 20260507235546 | 58 | 269 | 0.0 | 3.0 | 0.00 | 0.06 | 0.03 | 38 | 1004.3 |
| 20260507234814 | 58 | 270 | 0.0 | 4.0 | 0.00 | 0.06 | 0.03 | 38 | 1004.3 |
| 20260507234307 | 58 | 270 | 1.0 | 8.0 | 0.00 | 0.06 | 0.03 | 37 | 1004.2 |
| 20260507233806 | 58 | 253 | 2.0 | 8.0 | 0.00 | 0.06 | 0.03 | 36 | 1004.2 |
| 20260507233753 | 59 | 263 | 2.0 | 9.0 | 0.00 | 0.06 | 0.03 | 36 | 1004.2 |
| 20260507232807 | 59 | 294 | 3.0 | 11.0 | 0.00 | 0.06 | 0.03 | 36 | 1004.2 |
| 20260507232306 | 59 | 298 | 2.0 | 11.0 | 0.00 | 0.06 | 0.03 | 35 | 1004.2 |
| 20260507232023 | 59 | 289 | 2.0 | 9.0 | 0.00 | 0.06 | 0.03 | 36 | 1004.2 |
| 20260507231303 | 60 | 287 | 3.0 | 11.0 | 0.00 | 0.06 | 0.03 | 36 | 1004.0 |
| 20260507230801 | 60 | 324 | 3.0 | 11.0 | 0.00 | 0.06 | 0.03 | 35 | 1004.0 |
| 20260507230302 | 60 | 227 | 3.0 | 10.0 | 0.00 | 0.06 | 0.03 | 36 | 1003.9 |
| 20260507225801 | 60 | 276 | 4.0 | 11.0 | 0.00 | 0.07 | 0.03 | 35 | 1003.8 |
| 20260507225305 | 60 | 270 | 5.0 | 12.0 | 0.00 | 0.07 | 0.03 | 35 | 1003.8 |
| 20260507224801 | 61 | 315 | 4.0 | 12.0 | 0.00 | 0.07 | 0.03 | 34 | 1003.7 |
| 20260507224301 | 61 | 234 | 4.0 | 14.0 | 0.00 | 0.07 | 0.03 | 35 | 1003.6 |
| 20260507223800 | 61 | 300 | 4.0 | 14.0 | 0.00 | 0.07 | 0.03 | 34 | 1003.5 |
| 20260507223754 | 62 | 274 | 4.0 | 10.0 | 0.00 | 0.07 | 0.03 | 33 | 1003.5 |
| 20260507222801 | 62 | 244 | 4.0 | 10.0 | 0.00 | 0.07 | 0.03 | 33 | 1003.5 |
| 20260507222301 | 62 | 319 | 5.0 | 15.0 | 0.00 | 0.08 | 0.03 | 33 | 1003.5 |
| 20260507221800 | 63 | 248 | 6.0 | 15.0 | 0.00 | 0.08 | 0.03 | 32 | 1003.4 |
| 20260507221254 | 63 | 250 | 6.0 | 15.0 | 0.00 | 0.08 | 0.03 | 32 | 1003.3 |
| 20260507220748 | 63 | 255 | 6.0 | 15.0 | 0.00 | 0.08 | 0.03 | 31 | 1003.2 |
| 20260507220242 | 63 | 238 | 4.0 | 11.0 | 0.00 | 0.09 | 0.03 | 33 | 1003.2 |
| 20260507215736 | 63 | 285 | 4.0 | 13.0 | 0.00 | 0.10 | 0.03 | 33 | 1003.2 |
| 20260507215451 | 64 | 254 | 4.0 | 13.0 | 0.00 | 0.11 | 0.03 | 31 | 1003.2 |
| 20260507214944 | 64 | 273 | 4.0 | 13.0 | 0.00 | 0.12 | 0.03 | 32 | 1003.3 |
| 20260507214219 | 64 | 305 | 6.0 | 13.0 | 0.00 | 0.13 | 0.03 | 31 | 1003.3 |
| 20260507213712 | 64 | 338 | 6.0 | 14.0 | 0.00 | 0.13 | 0.03 | 32 | 1003.3 |
| 20260507213427 | 64 | 307 | 6.0 | 14.0 | 0.00 | 0.14 | 0.03 | 32 | 1003.2 |
| 20260507212917 | 65 | 279 | 6.0 | 14.0 | 0.00 | 0.15 | 0.03 | 31 | 1003.2 |
| 20260507212155 | 65 | 286 | 6.0 | 13.0 | 0.00 | 0.15 | 0.03 | 32 | 1003.1 |
| 20260507211648 | 65 | 285 | 5.0 | 12.0 | 0.00 | 0.16 | 0.03 | 32 | 1003.1 |
| 20260507211142 | 65 | 265 | 4.0 | 14.0 | 0.00 | 0.17 | 0.03 | 32 | 1003.1 |
| 20260507210637 | 65 | 228 | 4.0 | 14.0 | 0.00 | 0.18 | 0.03 | 32 | 1003.1 |
| 20260507210130 | 65 | 286 | 5.0 | 13.0 | 0.00 | 0.19 | 0.03 | 33 | 1003.1 |
| 20260507205624 | 65 | 232 | 6.0 | 13.0 | 0.00 | 0.19 | 0.03 | 33 | 1003.1 |
| 20260507205119 | 65 | 246 | 5.0 | 13.0 | 0.00 | 0.20 | 0.03 | 33 | 1003.0 |
| 20260507204613 | 65 | 332 | 6.0 | 13.0 | 0.00 | 0.20 | 0.03 | 34 | 1002.9 |
| 20260507204330 | 65 | 227 | 4.0 | 13.0 | 0.00 | 0.21 | 0.03 | 35 | 1002.9 |
| 20260507203600 | 64 | 252 | 4.0 | 14.0 | 0.00 | 0.21 | 0.03 | 33 | 1002.8 |
| 20260507203055 | 64 | 281 | 6.0 | 14.0 | 0.00 | 0.22 | 0.03 | 32 | 1002.9 |
| 20260507202811 | 64 | 289 | 6.0 | 15.0 | 0.00 | 0.22 | 0.03 | 33 | 1003.0 |
| 20260507202042 | 65 | 266 | 6.0 | 15.0 | 0.00 | 0.22 | 0.03 | 32 | 1003.0 |
| 20260507201536 | 65 | 298 | 6.0 | 14.0 | 0.00 | 0.22 | 0.03 | 31 | 1003.0 |
| 20260507201030 | 66 | 231 | 6.0 | 13.0 | 0.00 | 0.22 | 0.03 | 30 | 1003.0 |
| 20260507200524 | 66 | 283 | 6.0 | 13.0 | 0.00 | 0.22 | 0.03 | 33 | 1002.9 |
| 20260507200019 | 66 | 329 | 5.0 | 12.0 | 0.00 | 0.23 | 0.03 | 32 | 1002.9 |
| 20260507195512 | 66 | 248 | 6.0 | 19.0 | 0.00 | 0.23 | 0.03 | 35 | 1003.0 |
| 20260507195237 | 65 | 272 | 8.0 | 19.0 | 0.00 | 0.24 | 0.03 | 33 | 1003.1 |
| 20260507194500 | 65 | 344 | 7.0 | 15.0 | 0.00 | 0.24 | 0.03 | 33 | 1003.1 |
| 20260507193955 | 65 | 259 | 5.0 | 12.0 | 0.00 | 0.24 | 0.03 | 34 | 1003.0 |
| 20260507193449 | 65 | 326 | 5.0 | 15.0 | 0.00 | 0.24 | 0.03 | 33 | 1002.9 |
| 20260507192942 | 65 | 219 | 6.0 | 15.0 | 0.00 | 0.24 | 0.03 | 32 | 1003.0 |
| 20260507192436 | 65 | 307 | 5.0 | 12.0 | 0.00 | 0.24 | 0.03 | 31 | 1003.2 |
| 20260507191930 | 66 | 286 | 5.0 | 13.0 | 0.00 | 0.24 | 0.03 | 30 | 1003.2 |
| 20260507191424 | 65 | 279 | 5.0 | 13.0 | 0.00 | 0.24 | 0.03 | 32 | 1003.1 |
| 20260507190918 | 65 | 295 | 6.0 | 13.0 | 0.00 | 0.24 | 0.03 | 32 | 1003.2 |
| 20260507190412 | 65 | 300 | 7.0 | 16.0 | 0.00 | 0.24 | 0.03 | 31 | 1003.2 |
| 20260507185906 | 65 | 323 | 7.0 | 16.0 | 0.00 | 0.24 | 0.03 | 33 | 1003.2 |
| 20260507185400 | 65 | 259 | 5.0 | 15.0 | 0.00 | 0.24 | 0.03 | 39 | 1003.3 |
| 20260507184854 | 65 | 266 | 5.0 | 12.0 | 0.00 | 0.24 | 0.03 | 40 | 1003.2 |
| 20260507184609 | 64 | 282 | 4.0 | 12.0 | 0.00 | 0.24 | 0.03 | 42 | 1003.4 |
| 20260507183843 | 64 | 328 | 5.0 | 12.0 | 0.00 | 0.24 | 0.03 | 42 | 1003.4 |
| 20260507183336 | 65 | 311 | 6.0 | 16.0 | 0.00 | 0.24 | 0.03 | 43 | 1003.4 |
| 20260507183317 | 64 | 297 | 6.0 | 16.0 | 0.00 | 0.24 | 0.03 | 42 | 1003.5 |
| 20260507182324 | 64 | 216 | 6.0 | 18.0 | 0.00 | 0.24 | 0.03 | 43 | 1003.5 |
| 20260507181818 | 63 | 301 | 6.0 | 18.0 | 0.00 | 0.24 | 0.03 | 42 | 1003.5 |
| 20260507181313 | 64 | 305 | 5.0 | 13.0 | 0.00 | 0.24 | 0.03 | 40 | 1003.5 |
| 20260507180806 | 64 | 257 | 5.0 | 12.0 | 0.00 | 0.24 | 0.03 | 43 | 1003.5 |
| 20260507180302 | 64 | 300 | 7.0 | 14.0 | 0.00 | 0.24 | 0.03 | 42 | 1003.5 |
| 20260507175754 | 64 | 227 | 7.0 | 14.0 | 0.00 | 0.24 | 0.03 | 42 | 1003.6 |
| 20260507175508 | 64 | 278 | 5.0 | 12.0 | 0.00 | 0.24 | 0.03 | 44 | 1003.6 |
| 20260507174742 | 63 | 292 | 6.0 | 15.0 | 0.00 | 0.24 | 0.03 | 46 | 1003.7 |
| 20260507174238 | 63 | 240 | 7.0 | 15.0 | 0.00 | 0.24 | 0.03 | 45 | 1003.7 |
| 20260507173731 | 63 | 216 | 8.0 | 18.0 | 0.00 | 0.24 | 0.03 | 45 | 1003.7 |
| 20260507173224 | 63 | 211 | 7.0 | 18.0 | 0.00 | 0.24 | 0.03 | 45 | 1003.7 |
| 20260507172719 | 63 | 232 | 6.0 | 15.0 | 0.00 | 0.24 | 0.03 | 46 | 1003.8 |
| 20260507172213 | 62 | 272 | 6.0 | 15.0 | 0.00 | 0.24 | 0.03 | 50 | 1003.8 |
| 20260507171706 | 62 | 269 | 6.0 | 14.0 | 0.00 | 0.24 | 0.03 | 50 | 1003.9 |
| 20260507171200 | 62 | 241 | 8.0 | 17.0 | 0.00 | 0.24 | 0.03 | 50 | 1003.8 |
| 20260507170654 | 62 | 282 | 7.0 | 17.0 | 0.00 | 0.24 | 0.03 | 51 | 1004.0 |
| 20260507170148 | 60 | 296 | 5.0 | 10.0 | 0.00 | 0.24 | 0.03 | 59 | 1003.9 |
| 20260507165642 | 59 | 198 | 4.0 | 12.0 | 0.00 | 0.24 | 0.03 | 68 | 1004.1 |
| 20260507165136 | 58 | 223 | 4.0 | 12.0 | 0.00 | 0.24 | 0.03 | 68 | 1004.1 |
| 20260507164846 | 58 | 178 | 3.0 | 9.0 | 0.00 | 0.24 | 0.03 | 72 | 1004.2 |
| 20260507164124 | 57 | 186 | 3.0 | 11.0 | 0.00 | 0.24 | 0.03 | 73 | 1004.3 |
| 20260507163620 | 56 | 161 | 4.0 | 11.0 | 0.00 | 0.24 | 0.03 | 75 | 1004.4 |
| 20260507163118 | 55 | 184 | 5.0 | 14.0 | 0.00 | 0.24 | 0.03 | 74 | 1004.4 |
| 20260507162835 | 55 | 190 | 5.0 | 14.0 | 0.00 | 0.24 | 0.03 | 72 | 1004.5 |
| 20260507162117 | 55 | 215 | 5.0 | 13.0 | 0.00 | 0.24 | 0.03 | 74 | 1004.5 |
| 20260507161618 | 54 | 181 | 6.0 | 13.0 | 0.00 | 0.24 | 0.03 | 75 | 1004.5 |
| 20260507161334 | 54 | 180 | 5.0 | 11.0 | 0.00 | 0.24 | 0.03 | 74 | 1004.7 |
| 20260507160617 | 54 | 209 | 4.0 | 11.0 | 0.00 | 0.24 | 0.03 | 74 | 1004.8 |
| 20260507160116 | 54 | 172 | 5.0 | 16.0 | 0.00 | 0.24 | 0.03 | 74 | 1004.9 |
| 20260507155617 | 55 | 209 | 6.0 | 16.0 | 0.00 | 0.24 | 0.03 | 73 | 1004.9 |
| 20260507155338 | 55 | 152 | 6.0 | 13.0 | 0.00 | 0.24 | 0.03 | 72 | 1005.1 |
| 20260507154618 | 56 | 168 | 5.0 | 13.0 | 0.00 | 0.24 | 0.03 | 71 | 1005.0 |
| 20260507154118 | 56 | 169 | 5.0 | 12.0 | 0.00 | 0.24 | 0.03 | 72 | 1004.9 |
| 20260507153615 | 56 | 168 | 6.0 | 16.0 | 0.00 | 0.24 | 0.03 | 73 | 1005.0 |
| 20260507153341 | 56 | 179 | 7.0 | 16.0 | 0.00 | 0.24 | 0.03 | 74 | 1005.1 |
| 20260507152836 | 56 | 184 | 7.0 | 15.0 | 0.00 | 0.24 | 0.03 | 76 | 1005.2 |
| 20260507152114 | 56 | 157 | 6.0 | 15.0 | 0.00 | 0.24 | 0.03 | 75 | 1005.2 |
| 20260507151615 | 56 | 154 | 5.0 | 12.0 | 0.00 | 0.24 | 0.03 | 77 | 1005.1 |
| 20260507151115 | 56 | 155 | 4.0 | 10.0 | 0.00 | 0.24 | 0.03 | 77 | 1005.2 |
| 20260507150609 | 57 | 175 | 4.0 | 10.0 | 0.00 | 0.24 | 0.03 | 75 | 1005.2 |
| 20260507145557 | 57 | 153 | 5.0 | 11.0 | 0.00 | 0.24 | 0.03 | 76 | 1005.2 |
| 20260507145051 | 58 | 149 | 5.0 | 10.0 | 0.00 | 0.24 | 0.03 | 75 | 1005.1 |
| 20260507144546 | 57 | 188 | 4.0 | 10.0 | 0.00 | 0.24 | 0.03 | 75 | 1005.1 |
| 20260507144039 | 57 | 209 | 4.0 | 9.0 | 0.00 | 0.24 | 0.03 | 77 | 1005.0 |
| 20260507143532 | 57 | 148 | 4.0 | 8.0 | 0.00 | 0.24 | 0.03 | 78 | 1005.1 |
| 20260507143026 | 57 | 191 | 3.0 | 7.0 | 0.00 | 0.24 | 0.03 | 77 | 1005.2 |
| 20260507142520 | 56 | 194 | 3.0 | 7.0 | 0.00 | 0.24 | 0.03 | 78 | 1005.2 |
| 20260507142015 | 56 | 161 | 3.0 | 8.0 | 0.00 | 0.24 | 0.03 | 78 | 1005.3 |
| 20260507141509 | 56 | 141 | 3.0 | 8.0 | 0.00 | 0.24 | 0.03 | 77 | 1005.4 |
| 20260507141002 | 56 | 185 | 3.0 | 8.0 | 0.00 | 0.24 | 0.03 | 78 | 1005.4 |
| 20260507140940 | 56 | 193 | 3.0 | 8.0 | 0.00 | 0.24 | 0.03 | 79 | 1005.6 |
| 20260507135951 | 56 | 180 | 4.0 | 9.0 | 0.00 | 0.24 | 0.03 | 78 | 1005.5 |
| 20260507135710 | 56 | 192 | 4.0 | 9.0 | 0.00 | 0.24 | 0.03 | 78 | 1005.5 |
| 20260507134949 | 56 | 217 | 4.0 | 9.0 | 0.00 | 0.24 | 0.03 | 77 | 1005.6 |
| 20260507134449 | 56 | 189 | 4.0 | 9.0 | 0.00 | 0.24 | 0.03 | 79 | 1005.6 |
| 20260507133948 | 56 | 186 | 2.0 | 7.0 | 0.00 | 0.24 | 0.03 | 78 | 1005.5 |
| 20260507133447 | 57 | 192 | 1.0 | 6.0 | 0.00 | 0.24 | 0.03 | 77 | 1005.5 |
| 20260507132947 | 56 | 271 | 1.0 | 7.0 | 0.00 | 0.24 | 0.03 | 74 | 1005.7 |
| 20260507132446 | 56 | 229 | 2.0 | 9.0 | 0.00 | 0.24 | 0.03 | 73 | 1005.7 |
| 20260507131947 | 56 | 249 | 2.0 | 9.0 | 0.00 | 0.24 | 0.03 | 74 | 1005.7 |
| 20260507131447 | 55 | 255 | 0.0 | 4.0 | 0.00 | 0.24 | 0.03 | 75 | 1005.7 |
| 20260507130944 | 55 | 271 | 1.0 | 6.0 | 0.00 | 0.24 | 0.03 | 76 | 1005.7 |
| 20260507130708 | 55 | 268 | 2.0 | 6.0 | 0.00 | 0.24 | 0.03 | 77 | 1005.8 |
| 20260507125944 | 54 | 285 | 1.0 | 7.0 | 0.00 | 0.24 | 0.03 | 77 | 1005.7 |
| 20260507125444 | 54 | 265 | 2.0 | 7.0 | 0.00 | 0.24 | 0.03 | 78 | 1005.8 |
| 20260507124944 | 54 | 279 | 3.0 | 9.0 | 0.00 | 0.24 | 0.03 | 78 | 1005.8 |
| 20260507124445 | 54 | 275 | 2.0 | 9.0 | 0.00 | 0.24 | 0.03 | 79 | 1005.9 |
| 20260507123944 | 53 | 275 | 1.0 | 7.0 | 0.00 | 0.24 | 0.03 | 80 | 1005.9 |
| 20260507123446 | 53 | 275 | 2.0 | 7.0 | 0.00 | 0.24 | 0.03 | 79 | 1005.9 |
| 20260507122939 | 53 | 318 | 2.0 | 8.0 | 0.00 | 0.24 | 0.03 | 79 | 1006.0 |
| 20260507122438 | 52 | 322 | 2.0 | 8.0 | 0.00 | 0.24 | 0.03 | 80 | 1005.9 |